Regional Weather Roundup
Issued by NWS

Home | Current Version | Previous Version | Text Only | Print | Product List | Glossary Off
Versions: 1 2 3 4 5 6 7 8 9 10 11 12 13 14 15 16 17 18 19 20 21 22 23 24 25 26 27 28 29 30 31 32 33 34 35 36 37 38 39 40 41 42 43 44 45 46 47 48 49 50

000
ASUS43 KLMK 291002
RWRKY
KENTUCKY REGIONAL WEATHER ROUNDUP
NATIONAL WEATHER SERVICE LOUISVILLE KY
600 AM EDT FRI MAY 29 2015

NOTE "FAIR" INDICATES FEW OR NO CLOUDS BELOW 12,000 FEET
WITH NO SIGNIFICANT WEATHER AND/OR OBSTRUCTIONS TO VISIBILITY.

KYZ001>023-026-027-061>063-070>075-291100-
WESTERN AND SOUTH CENTRAL KENTUCKY

CITY           SKY/WX    TMP DP  RH WIND       PRES   REMARKS
PADUCAH        CLEAR     66  63  90 CALM      30.04R
HENDERSON      CLEAR     68  63  83 S3        30.05R
OWENSBORO      CLEAR     68  66  93 SE5       30.07S
HOPKINSVILLE   PTCLDY    68  65  91 SE7       30.06S
BOWLING GREEN  CLEAR     65  63  93 E5        30.10F
GLASGOW        NOT AVBL
$$

KYZ024-025-028>034-038-045-046-053-291100-
NORTH CENTRAL KENTUCKY

CITY           SKY/WX    TMP DP  RH WIND       PRES   REMARKS
LOUISVILLE/SDF MOCLDY    67  63  87 SE7       30.11R
LOUISVILLE/LOU CLEAR     66  63  90 CALM      30.12S
FORT KNOX      CLEAR     65  63  94 E5        30.10S
$$

KYZ035>037-039>044-047>052-055>060-089>105-291100-
NORTHEAST KENTUCKY

CITY           SKY/WX    TMP DP  RH WIND       PRES   REMARKS
LEXINGTON      CLEAR     66  64  93 SE6       30.15S
COVINGTON      PTCLDY    67  65  93 SE3       30.14S
FRANKFORT      CLEAR     64  63  96 CALM      30.13S
$$

KYZ054-064>069-076>088-106>120-291100-
SOUTHEAST KENTUCKY

CITY           SKY/WX    TMP DP  RH WIND       PRES   REMARKS
JACKSON        CLEAR     67  63  87 CALM      30.19R
LONDON         FOG       64  61  90 CALM      30.18R VSB 1
SOMERSET       NOT AVBL
MIDDLESBORO    MOCLDY    64  64 100 CALM      30.21R
MONTICELLO     SUNNY     62  62 100 CALM      30.19R
$$




USA.gov is the U.S. government's official web portal to all federal, state and local government web resources and services.